Showing default

DIAPASON (D1-A), 2016

Orbit data source: Space-Track

DIAPASON (D1-A), 2016 is a payload satellite owned by CNES (FR) in LEO that was launched on Thu, 17 Feb 1966 UTC via a DIAMANT A launch vehicle from the Hamma Guira Space Track Range (HGSTR). Payloads include a variety of satellites, spacecraft, and rockets equipped with specific instruments for various scientific and technological missions. These include communications satellites like Starlink; space stations such as the ISS; scientific satellites like the Hubble; Earth observation satellites from companies like Planet Labs, Umbra, and HawkEye 360; GPS; miniature CubeSats for education and research; and military/defense satellites.

Loading next visibility...
DIAPASON (D1-A) details
Identifier
2016, 1966-013A
Orbit
LEO
Last TLE update5 hours ago
Origin
Flag of FRCNES (FR)
ManufacturerCNES
MissionCivil Geodetic
Bus & MotorD-1, Unknown motor
Mass19 kg wet, 19 kg dry
Launch date (UTC)
1966-02-17 (59 years ago)
Launch vehicle
DIAMANT A
Launch site
Hamma Guira Space Track Range (HGSTR)
Object type
Payload
Rocket body
Debris
Shape & HBRCyl + 4 Pan + 4 Rod, 1.5 m
Radar Cross Section0.455 m², Large (>1 m²)

Expand to show TLE details & history

TLE from 5 hours ago
0 DIAPASON (D1-A)
1  2016U 66013A   24356.42227299  .00003369  00000-0  95041-3 0  9995
2  2016  34.0975 108.3168 1166606 261.6459  85.0516 12.64708569671237
Epoch: 2024-12-21T10:08Z
Definitive object data (Epoch: 2024-12-21T10:08:04.386Z)
Latitude0.00002°
Longitude-134.1751°
Altitude1,429.929 km
Speed7.135 km/s
True Right ascension07h 13m 16s
True Declination0° 00' 00"
Sunlit
Object was in full shadow at TLE epoch
Visualization TLE readout
Latitude-3.74648°
Longitude50.48074°
Altitude1,091.164 km
Speed7.453 km/s
Apparent Right ascension21h 54m 37s
Apparent Declination-28° 43' 48"
Sunlit
Object is in daylight
Visualization observer readout
Local Sidereal Time14:04:51
Azimuth98.001° ESE
Elevation-38.197°
Doppler factor1
Orbital elements
Apogee altitude2,314.805 km
Perigee altitude498.454 km
Semi-major axis7,784.766 km
Eccentricity0.1166606
Inclination34.0975°
RAAN108.3168°
Arg. of periapsis261.6459°
True anomaly98.41726°
Mean anomaly85.0516°
Eccentric anomaly91.7327°
Mean motion3.15991 °/min
BSTAR0.00095041
Orbital period113.93 mins
Loading maneuver chart data...

DIAPASON (D1-A) Visibility forecast

Observer location: undefined°, undefined

Span
Click to sort rows by Start time (UTC) header in descending order
Start Az.
Max El. time (UTC)
Max El. Az.
Max El.
End time (UTC)
End Az.
23 mins2024-12-21 16:19:37.853Z273.027° WNW2024-12-21 16:32:37.853Z207.152° SW37.949°2024-12-21 16:42:37.853Z134.778° SE
15 mins2024-12-21 18:25:37.853Z264.034° W2024-12-21 18:33:37.853Z222.7° SW21.488°2024-12-21 18:40:37.853Z177.573° S
14 mins2024-12-22 09:00:37.853Z172.056° S2024-12-22 09:06:37.853Z135.184° SSE19.846°2024-12-22 09:14:37.853Z96.372° ESE
22 mins2024-12-22 10:57:37.853Z220.248° SW2024-12-22 11:07:37.853Z149.84° SSE36.869°2024-12-22 11:19:37.853Z87.774° E
24 mins2024-12-22 12:58:37.853Z250.473° W2024-12-22 13:09:37.853Z176.833° S42.768°2024-12-22 13:22:37.853Z96.396° ESE
|